Tracking 32139 objects as of 15-Nov-2025
HD Live streaming from Space Station
objects crossing your sky now

STARLINK-31607

Track STARLINK-31607 now!
10-day predictions
STARLINK-31607 is classified as:


NORAD ID: 59394
Int'l Code: 2024-062W
Perigee: 481.4 km
Apogee: 483.4 km
Inclination: 53.2 °
Period: 94.1 minutes
Semi major axis: 6853 km
RCS: Unknown
Launch date: April 2, 2024
Source: United States (US)
Launch site: AIR FORCE WESTERN TEST RANGE (AFWTR)
Your satellite tracking list
Your tracking list is empty




NASA's NSSDC Master Catalog

Two Line Element Set (TLE):
1 59394U 24062W   25319.46306836  .00005980  00000-0  21395-3 0  9995
2 59394  53.1620  66.1724 0001507  70.0973 290.0190 15.30188457 92176
Source of the keplerian elements: AFSPC